Home > Time Zones > World Clock > Weather > Mexico > Leon > Past weeks

Flag for Mexico Weather past 2 weeks in Leon, Guanajuato, Mexico

Now
61 °F

Passing clouds.


Feels Like: 61 °F
Forecast: 54 / 79 °F
Wind: 6 mph from Northeast

Location: Del Bajio / Leon

Current Time: Sep 30, 2014 at 7:38:06 AM

Latest Report: Sep 30, 2014 at 5:50 AM


Visibility: 8 mi

Pressure: 30.18 "Hg

Humidity: 83%

Dew point: 55 °F

Location of LeonLocation

Historic Weather in Leon — Graph

°F

Leon temperature yesterday

Maximum temperature yesterday: 77 °F (at 1:42 PM)
Minimum temperature yesterday: 55 °F (at 7:50 AM)
Average temperature yesterday: 67 °F

Past Weeks' High & Low Weather Summary

 TemperatureHumidityPressure
High81 °F (Sep 25, 5:51 PM)100% (Sep 17, 6:47 AM)30.35 "Hg (Sep 17, 6:47 AM)
Low54 °F (Sep 19, 6:46 AM)36% (Sep 16, 10:45 AM)29.68 "Hg (Sep 27, 3:50 PM)
Average68 °F67%30.10 "Hg
* Reported Sep 15 6:47 AM — Sep 30 5:50 AM, Leon, Weather by CustomWeather, © 2014

Note: Actual official high and low records may vary slightly from our data, if they occured in-between our weather recording intervals... More about our weather records

Advertising

Leon weather history for previous 24 hours

 ConditionsComfort  
Time TempWeatherWind HumidityBarometerVisibility
5:50 AM
Sep 30
61 °FPassing clouds.6 mph83%30.18 "Hg8 mi
4:45 AM61 °FPassing clouds.No wind83%30.17 "Hg8 mi
2:45 AM63 °FPassing clouds.No wind73%30.19 "Hg8 mi
1:49 AM63 °FPassing clouds.No wind77%30.19 "Hg8 mi
12:50 AM66 °FPassing clouds.No wind64%29.75 "Hg8 mi
11:50 PM
Sep 29
68 °FPartly cloudy.No wind60%30.18 "Hg8 mi
10:47 PM68 °FPartly cloudy.No wind60%30.18 "Hg8 mi
9:45 PM68 °FPartly cloudy.No wind64%29.75 "Hg8 mi
8:53 PM70 °FPartly cloudy.No wind69%30.14 "Hg8 mi
7:53 PM68 °FBroken clouds.No wind64%30.11 "Hg8 mi
5:46 PM75 °FBroken clouds.No wind74%30.10 "Hg10 mi
4:50 PM72 °FBroken clouds.3 mph69%30.11 "Hg10 mi
1:42 PM77 °FPartly sunny.7 mph47%30.20 "Hg10 mi
12:48 PM73 °FPartly sunny.5 mph53%29.79 "Hg10 mi
10:46 AM72 °FPartly sunny.6 mph61%30.24 "Hg10 mi
9:44 AM66 °FBroken clouds.5 mph73%29.83 "Hg10 mi
8:48 AM61 °FPartly sunny.No wind83%30.24 "Hg10 mi
7:50 AM55 °FPassing clouds.No wind94%30.22 "Hg10 mi
Weather by CustomWeather, © 2014

See weather overviewHow to use our weather pages